Powrót do katalogu

ASIASAT 6

AktywnyŁącznośćGEO
NORAD 40141·PAYLOAD·🇸🇭 SH

Wystrzelony Sep 7, 2014 z Cape Canaveral Space Force Station

Loading…

TLE

ŚwieżeSource: Space-Track

Epoka: Sep 14, 2026, 14:22 UTC

1 40141U 14052A   26257.59884778 -.00000370  00000-0  00000-0 0  9991
2 40141   0.0306 267.5729 0000884 251.7527 169.7519  1.00272307 43971

Śledź ASIASAT 6 w czasie rzeczywistym z AllMySat

Download on the App Store